[[{"header":{"parameterUnit":"m.s-1","parameterCategory":1,"la1":30.2991,"la2":30.254,"lo1":-89.0895,"lo2":-89.0444,"dy":0.0017,"dx":0.0017,"nx":28,"ny":28,"refTime":"2024-05-15T09:00:00:Z","depth":0,"parameterNumber":2,"parameterNumberName":"U-component_of_WINDS"},"data":[0,0,0,0,0,0,0,0,0,0,0,0,0,0,0,0,0,0,0,0,0,0,0,0,0,0,0,0,0,0,0,0,0,0,0,0,0,0,0,0,0,0,0,0,0,0,0,0,0,0,0,0,0,0,0,0,0,0,-2.339,-2.339,0,-2.3406,-2.3407,-2.3407,-2.3382,-2.3381,-2.338,-2.338,-2.3397,-2.3398,-2.3399,0,0,0,0,0,0,0,0,0,0,0,0,0,-2.3339,-2.334,-2.339,-2.339,-2.339,-2.3406,-2.3407,-2.3407,-2.3382,-2.3381,-2.338,-2.3379,-2.3397,-2.3398,-2.34,0,0,0,0,0,0,0,0,0,0,0,0,0,-2.3359,-2.334,-2.339,-2.338,-2.3379,-2.3406,-2.3407,-2.3407,-2.3382,-2.3381,-2.338,-2.3379,-2.3396,-2.3398,-2.34,-2.3437,0,0,-2.3406,-2.3406,0,0,0,0,0,0,0,0,-2.3357,-2.336,-2.3381,-2.3381,-2.338,-2.3391,-2.3395,-2.3417,-2.3383,-2.3381,-2.338,-2.3378,-2.3396,-2.3398,-2.3404,-2.3438,-2.3439,-2.3406,-2.3407,-2.3408,-2.3408,0,0,0,0,0,0,0,-2.3356,-2.336,-2.3396,-2.3382,-2.3381,-2.3375,-2.3377,-2.3399,-2.3396,-2.3381,-2.338,-2.3382,-2.3395,-2.3402,-2.3404,-2.3439,-2.3406,-2.3407,-2.3409,-2.3409,-2.3505,-2.3507,0,0,0,0,0,0,-2.3356,-2.3359,-2.3396,-2.3397,-2.3365,-2.3377,-2.3379,-2.3389,-2.3395,-2.3395,-2.3383,-2.3381,-2.3399,-2.3402,-2.3405,-2.3449,-2.3408,-2.3409,-2.3411,-2.3504,-2.3506,-2.3507,0,0,0,0,0,0,-2.3355,-2.3359,-2.3395,-2.3377,-2.3381,-2.3379,-2.3391,-2.339,-2.3396,-2.3397,-2.3396,-2.339,-2.3398,-2.3402,-2.3429,-2.3449,-2.341,-2.3412,-2.3502,-2.3504,-2.3506,-2.3537,0,0,0,0,0,0,-2.3353,-2.3359,-2.3373,-2.3378,-2.3382,-2.3419,-2.3392,-2.3391,-2.3399,-2.3397,-2.3403,-2.3403,-2.3398,-2.3427,-2.3431,-2.3451,-2.3414,-2.3501,-2.3503,-2.3506,-2.3534,-2.354,-2.3545,0,0,0,0,0,-2.3352,-2.3381,-2.3374,-2.3378,-2.34,-2.3421,-2.3423,-2.3416,-2.3401,-2.3415,-2.3416,-2.3403,-2.3446,-2.343,-2.3435,-2.3455,-2.3499,-2.3502,-2.3506,-2.3532,-2.3539,-2.3545,0,0,0,0,0,0,-2.3379,-2.3382,-2.3373,-2.3405,-2.3413,-2.3416,-2.3434,-2.3424,-2.3436,-2.3433,-2.3424,-2.3426,-2.3455,-2.3458,-2.344,-2.3492,-2.347,-2.3475,-2.3489,-2.3495,-2.3501,-2.3499,-2.3415,0,0,0,0,0,-2.3389,-2.3405,-2.3407,-2.3435,-2.3439,-2.3436,-2.3445,-2.3439,-2.3446,-2.345,-2.3452,-2.346,-2.3475,-2.3486,-2.35,-2.3535,-2.3536,-2.3552,-2.3557,-2.3562,-2.3565,-2.3584,-2.3591,-2.3518,-2.3518,-2.3518,0,0,-2.3409,-2.3412,-2.3423,-2.344,-2.3445,-2.3463,-2.3439,-2.3458,-2.3471,-2.3453,-2.3478,-2.3481,-2.3489,-2.3521,-2.3535,-2.3524,-2.3586,-2.3566,-2.3569,-2.357,-2.3588,-2.3595,-2.3601,-2.352,-2.3519,-2.3519,0,0,-2.3454,-2.3459,-2.3482,-2.3488,-2.3496,-2.3494,-2.35,-2.3505,-2.3506,-2.3532,-2.3518,-2.3534,-2.3561,-2.3567,-2.3574,-2.3623,-2.3612,-2.3628,-2.3655,-2.3674,-2.3679,-2.3684,-2.3701,-2.3708,-2.3632,-2.3632,-2.3632,0,-2.3478,-2.3503,-2.3496,-2.3516,-2.3524,-2.3508,-2.3532,-2.3539,-2.3551,-2.3557,-2.3545,-2.3579,-2.3583,-2.3616,-2.3628,-2.3634,-2.3641,-2.3627,-2.3679,-2.3684,-2.3689,-2.3705,-2.3711,-2.3634,-2.3634,-2.3634,-2.3633,0,-2.3532,-2.355,-2.3569,-2.3581,-2.3591,-2.3613,-2.3609,-2.3621,-2.3614,-2.3614,-2.3641,-2.3646,-2.3661,-2.3668,-2.3662,-2.37,-2.3693,-2.3681,-2.3658,-2.3698,-2.3713,-2.3719,-2.3637,-2.3636,-2.3635,-2.3635,0,0,-2.3594,-2.3602,-2.3609,-2.3614,-2.3623,-2.3637,-2.3659,-2.3673,-2.3683,-2.3693,-2.371,-2.3734,-2.3722,-2.373,-2.3725,-2.3741,-2.3779,-2.3726,-2.3726,-2.3735,-2.3821,-2.383,-2.3837,-2.3772,-2.3773,-2.3774,-2.382,0,-2.3639,-2.3676,-2.367,-2.3706,-2.3722,-2.3708,-2.3727,-2.3735,-2.3735,-2.3749,-2.375,-2.3766,-2.375,-2.3755,-2.377,-2.3771,-2.3796,-2.3768,-2.3788,-2.3789,-2.3786,-2.3845,-2.3854,-2.3897,-2.3826,-2.3827,-2.3828,0,-2.3696,-2.3707,-2.3745,-2.375,-2.3757,-2.3774,-2.3787,-2.3801,-2.3809,-2.3809,-2.3818,-2.381,-2.3832,-2.381,-2.3841,-2.3822,-2.383,-2.3832,-2.3834,-2.3834,-2.381,-2.3846,-2.3911,-2.3917,-2.3837,-2.3836,-2.3835,0,-2.3736,-2.3761,-2.3787,-2.3792,-2.3799,-2.3812,-2.3816,-2.3823,-2.3832,-2.3844,-2.3849,-2.3864,-2.3871,-2.3883,-2.3879,-2.3864,-2.391,-2.3888,-2.391,-2.391,-2.3919,-2.3919,-2.3985,-2.3927,-2.3926,-2.3926,-2.3926,0,-2.3786,-2.381,-2.3805,-2.3821,-2.3846,-2.384,-2.3866,-2.3868,-2.3875,-2.3891,-2.388,-2.3895,-2.389,-2.3905,-2.3903,-2.3928,-2.3932,-2.3931,-2.393,-2.3932,-2.3932,-2.3936,-2.3933,-2.3928,-2.3928,-2.3927,-2.3927,0,-2.3836,-2.3833,-2.386,-2.3865,-2.3867,-2.3886,-2.389,-2.3905,-2.3905,-2.3926,-2.393,-2.393,-2.3947,-2.3945,-2.3965,-2.3963,-2.3994,-2.399,-2.3991,-2.399,-2.4011,-2.4009,-2.4082,-2.4091,-2.4027,-2.4028,-2.4029,0,-2.3867,-2.3885,-2.3892,-2.3901,-2.3906,-2.3922,-2.3931,-2.3926,-2.3936,-2.3948,-2.3961,-2.3978,-2.399,-2.4019,-2.402,-2.4035,-2.4031,-2.4055,-2.4033,-2.4034,-2.403,-2.4029,-2.403,-2.4059,-2.406,-2.4061,-2.4061,0,-2.3923,-2.3921,-2.3935,-2.3948,-2.396,-2.397,-2.398,-2.3988,-2.3984,-2.3996,-2.4014,-2.4024,-2.4044,-2.406,-2.4074,-2.4078,-2.4069,-2.4069,-2.4074,-2.4075,-2.4075,-2.4075,-2.4002,-2.4067,-2.4066,-2.4066,-2.4065,-2.4065,-2.3964,-2.3979,-2.3986,-2.4002,-2.4008,-2.4017,-2.4032,-2.4033,-2.4048,-2.4063,-2.4059,-2.4079,-2.4087,-2.4105,-2.4111,-2.4127,-2.4118,-2.4126,-2.4128,-2.413,-2.4132,-2.4073,-2.4129,-2.4129,-2.4129,-2.4129,-2.4129,0,-2.4019,-2.4023,-2.4038,-2.4051,-2.4063,-2.4054,-2.4064,-2.4075,-2.4092,-2.4101,-2.4113,-2.4134,-2.415,-2.4153,-2.4168,-2.418,-2.4176,-2.4184,-2.4183,-2.4184,-2.414,-2.4133,-2.4187,-2.4187,-2.4187,-2.4187,-2.4187,-2.4187,-2.4049,-2.4074,-2.4073,-2.4101,-2.4104,-2.4123,-2.413,-2.4138,-2.4145,-2.4168,-2.4181,-2.4183,-2.4189,-2.4205,-2.4219,-2.422,-2.4226,-2.4235,-2.4234,-2.4193,-2.4187,-2.4181,-2.4175,-2.4237,-2.4237,-2.4277,-2.4277,-2.4277]},{"header":{"parameterUnit":"m.s-1","parameterCategory":1,"la1":30.2991,"la2":30.254,"lo1":-89.0895,"lo2":-89.0444,"dy":0.0017,"dx":0.0017,"nx":28,"ny":28,"refTime":"2024-05-15T09:00:00:Z","depth":0,"parameterNumber":3,"parameterNumberName":"V-component_of_WINDS"},"data":[0,0,0,0,0,0,0,0,0,0,0,0,0,0,0,0,0,0,0,0,0,0,0,0,0,0,0,0,0,0,0,0,0,0,0,0,0,0,0,0,0,0,0,0,0,0,0,0,0,0,0,0,0,0,0,0,0,0,5.6793,5.6794,0,5.6856,5.6856,5.6857,5.6795,5.6793,5.679,5.6788,5.6848,5.6851,5.6855,0,0,0,0,0,0,0,0,0,0,0,0,0,5.6617,5.662,5.6793,5.6794,5.6795,5.6855,5.6856,5.6857,5.6795,5.6793,5.679,5.6787,5.6846,5.6851,5.6855,0,0,0,0,0,0,0,0,0,0,0,0,0,5.6687,5.6621,5.6793,5.6771,5.677,5.6855,5.6856,5.6857,5.6796,5.6792,5.6789,5.6785,5.6845,5.685,5.6856,5.6964,0,0,5.6874,5.6876,0,0,0,0,0,0,0,0,5.6684,5.6694,5.6774,5.6773,5.6772,5.6814,5.6816,5.6893,5.6797,5.6786,5.6788,5.6784,5.6839,5.6845,5.6865,5.6967,5.697,5.6874,5.6878,5.688,5.6882,0,0,0,0,0,0,0,5.6679,5.6691,5.6818,5.6775,5.6774,5.6757,5.6763,5.683,5.6832,5.6787,5.6782,5.6791,5.6838,5.6859,5.6866,5.6971,5.6874,5.6879,5.6883,5.6885,5.7165,5.7169,0,0,0,0,0,0,5.6677,5.6687,5.6816,5.6819,5.6718,5.6763,5.677,5.6804,5.6831,5.6832,5.6794,5.6788,5.6851,5.6859,5.6867,5.6996,5.688,5.6886,5.6889,5.7161,5.7166,5.717,0,0,0,0,0,0,5.6673,5.6689,5.6813,5.6752,5.6767,5.677,5.6809,5.6807,5.6828,5.6837,5.6836,5.6816,5.6849,5.6859,5.6941,5.6997,5.6888,5.6893,5.7156,5.7162,5.7168,5.7254,0,0,0,0,0,0,5.6668,5.6688,5.673,5.6754,5.677,5.6887,5.6812,5.6811,5.6839,5.6832,5.6857,5.6858,5.6847,5.6933,5.6947,5.7003,5.6898,5.7151,5.7159,5.7166,5.7246,5.7262,5.7276,0,0,0,0,0,5.6662,5.6751,5.6733,5.6748,5.6823,5.6891,5.69,5.6886,5.6844,5.6886,5.6891,5.6857,5.6989,5.6942,5.6957,5.7016,5.7148,5.7157,5.7165,5.7239,5.7259,5.7275,0,0,0,0,0,0,5.6732,5.6753,5.6733,5.6833,5.6861,5.688,5.6932,5.6908,5.6947,5.6938,5.6918,5.6925,5.7011,5.7021,5.6969,5.7122,5.7061,5.7074,5.7112,5.7131,5.7145,5.7141,5.6903,0,0,0,0,0,5.6759,5.6813,5.6829,5.6914,5.693,5.6929,5.6958,5.6945,5.6972,5.6983,5.6994,5.7021,5.7069,5.71,5.7144,5.7247,5.7251,5.7295,5.731,5.7322,5.7333,5.7388,5.7407,5.7199,5.7199,5.7199,0,0,5.6815,5.6834,5.6869,5.6929,5.6949,5.7004,5.6939,5.7,5.7041,5.6992,5.707,5.708,5.7108,5.7201,5.7243,5.7212,5.7392,5.7334,5.7343,5.7347,5.7399,5.7419,5.7436,5.7205,5.7204,5.7203,0,0,5.6946,5.6966,5.7039,5.7061,5.7093,5.7092,5.711,5.7134,5.7138,5.7217,5.7182,5.7229,5.7311,5.7333,5.7355,5.7494,5.7464,5.7509,5.7586,5.764,5.7657,5.7671,5.772,5.7738,5.752,5.752,5.752,0,5.7011,5.7094,5.708,5.7144,5.7171,5.7132,5.7206,5.7227,5.7271,5.729,5.7256,5.7359,5.7375,5.7472,5.7507,5.7526,5.7545,5.7506,5.7656,5.767,5.7683,5.773,5.7749,5.7525,5.7525,5.7524,5.7524,0,5.7173,5.7231,5.7287,5.7332,5.7365,5.7434,5.7429,5.7464,5.7449,5.7451,5.7531,5.755,5.7597,5.7619,5.7604,5.7715,5.7695,5.7659,5.7597,5.7709,5.7752,5.777,5.7533,5.7531,5.7529,5.7528,0,0,5.7348,5.7386,5.7406,5.7426,5.7459,5.7503,5.7569,5.7617,5.7648,5.7679,5.7734,5.7805,5.7772,5.7797,5.7784,5.7831,5.794,5.7789,5.7789,5.7816,5.8062,5.8089,5.811,5.7921,5.7924,5.7927,5.806,0,5.748,5.7597,5.7586,5.7697,5.775,5.7713,5.7771,5.7797,5.7801,5.7845,5.7849,5.7899,5.7852,5.7867,5.7912,5.7917,5.7989,5.7908,5.797,5.7973,5.7964,5.8133,5.8162,5.8286,5.8077,5.808,5.8082,0,5.7648,5.7688,5.7805,5.7829,5.7851,5.7904,5.7946,5.799,5.8018,5.8017,5.8046,5.8025,5.809,5.8028,5.8118,5.8063,5.8087,5.8094,5.8098,5.8103,5.8034,5.8142,5.8326,5.8345,5.8109,5.8106,5.8105,0,5.7765,5.7847,5.7927,5.7945,5.7976,5.8014,5.8028,5.8053,5.8082,5.8119,5.8137,5.8181,5.8205,5.8239,5.823,5.8185,5.8321,5.8258,5.8322,5.8322,5.8352,5.835,5.8542,5.8369,5.8369,5.8368,5.8368,0,5.7912,5.7985,5.798,5.8029,5.8109,5.8095,5.8174,5.8184,5.8206,5.8256,5.8226,5.8273,5.8258,5.8304,5.8297,5.8372,5.8383,5.8384,5.8381,5.8387,5.8386,5.8402,5.8393,5.8373,5.8372,5.8371,5.837,0,5.8055,5.8055,5.814,5.8163,5.817,5.8228,5.8246,5.8292,5.8294,5.8357,5.8371,5.8374,5.8426,5.8421,5.8479,5.8475,5.8568,5.8555,5.8559,5.8556,5.862,5.8614,5.8828,5.8855,5.8665,5.8667,5.8668,0,5.8149,5.8204,5.8234,5.8266,5.8283,5.8334,5.8365,5.8353,5.8386,5.8422,5.8463,5.8513,5.8553,5.8638,5.8644,5.8689,5.8676,5.8748,5.8683,5.8686,5.8677,5.8674,5.8679,5.8761,5.8763,5.8765,5.8766,0,5.8316,5.8313,5.8359,5.8405,5.8442,5.8477,5.8509,5.8536,5.8528,5.8566,5.862,5.8651,5.8711,5.8761,5.8803,5.8816,5.879,5.8787,5.8804,5.881,5.881,5.881,5.8594,5.8782,5.8781,5.8779,5.8779,5.8778,5.8437,5.8485,5.8513,5.8564,5.8588,5.8618,5.8663,5.8671,5.8716,5.8765,5.8755,5.8816,5.8842,5.8896,5.8914,5.896,5.8934,5.8959,5.8965,5.8971,5.8978,5.8803,5.8968,5.8967,5.8967,5.8967,5.8966,0,5.8602,5.8619,5.8667,5.8713,5.8753,5.8727,5.8761,5.8796,5.885,5.8877,5.8917,5.8979,5.9028,5.9038,5.9084,5.9119,5.9108,5.9132,5.9129,5.9132,5.8999,5.898,5.914,5.914,5.914,5.914,5.914,5.9139,5.8693,5.8772,5.8773,5.8862,5.8878,5.8938,5.896,5.8987,5.9009,5.908,5.9121,5.9128,5.9148,5.9195,5.9238,5.924,5.9258,5.9286,5.9283,5.9159,5.9141,5.9125,5.9106,5.929,5.929,5.9411,5.9412,5.9413]}]]